Starlink 32709

operational
NORAD ID: 62439 Int'l Des: 2024-251 Owner: SPXS Country: US Constellation: starlink
LEOCIRCULAR

Über Starlink 32709

Beschreibung wird geladen...

Live-Position

3D-Globus wird geladen...

Nächste Überflüge

Höhenverlauf

Altitude vs Time

uPlot chart will show altitude changes over time

Zweizeiliger Elementsatz

1 62439U 24251H 25258.18606043 .00062445 00000-0 20999-2 0 9990
2 62439 53.1595 70.8117 0001350 84.8460 275.2695 15.30244120 41077
Epoch: 15. Sept. 2025 • Age: 18 hours

Aktueller Status

Höhe 474.7 km
Geschwindigkeit 7.63 km/s
Subsatellitenpunkt 12.52°N, 93.65°W
Startdatum 29. Dez. 2024
Alter 0.7 years
Typ internet

Technische Details

Klassifizierung Payload
Masse 730.00 kg
Trockenmasse 700.00 kg
Gesamtmasse 730.00 kg
Länge 0.30 m
Durchmesser 4.10 m
Spannweite 29.00 m
Form Box + pan
Hersteller SPXS
Bus-Typ Starlink V2M
Phasenstatus In Orbit
Besitzer/Staat SPXS/US

Große Konstellationen

Loading constellations...